CW8822 Caguas PR US current weather conditions

sailwx.info

Wind from 193

Air temperature 21.7° C
Dewpoint 19.4° C

Last reported at 2018-Apr-21 10:57 UTC.
Time now 2018-Apr-21 11:40 UTC

Location: N 18°12' W 066°01'.
View on Google Maps.

See reports from other nearby stations

  
Tides and Currents Weather Stations Pressure Air Temp Water Temp Dewpoint Dewpoint Depression Visibility Wind Speed Wind Dir Waves Ship Positions
date/time (UTC)wind fromknots sea level pressurealtimeterstation pressurevisibilityair tempwater tempwave heightnotes
2018-Apr-21 10:57 193 21.7
2018-Apr-21 10:43 193 21.7
2018-Apr-21 10:27 193 21.7
2018-Apr-21 10:12 193 21.7
2018-Apr-21 09:57 211 21.7
2018-Apr-21 09:42 225 21.7
2018-Apr-21 09:27 225 21.1
2018-Apr-21 09:12 229 21.1
2018-Apr-21 08:57 229 21.1
2018-Apr-21 08:42 229 21.1
2018-Apr-21 08:27 229 21.1
2018-Apr-21 08:12 229 21.1
2018-Apr-21 07:57 229 0 gusting 3 21.1
2018-Apr-21 07:42 217 21.1
2018-Apr-21 07:27 217 21.1
2018-Apr-21 07:12 217 21.1
2018-Apr-21 06:57 171 21.1
2018-Apr-21 06:42 171 21.1
2018-Apr-21 06:27 203 1 gusting 8 21.1
2018-Apr-21 06:12 107 4 gusting 9 21.1
2018-Apr-21 05:57 129 1 gusting 6 21.1
2018-Apr-21 05:42 130 0 gusting 5 21.7
2018-Apr-21 05:27 144 1 gusting 7 21.7
2018-Apr-21 05:11 153 3 gusting 6 22.2
2018-Apr-21 04:56 168 2 gusting 4 22.8
2018-Apr-21 04:41 168 22.8
2018-Apr-21 04:26 168 22.8
2018-Apr-21 04:11 168 22.8
2018-Apr-21 03:56 168 22.8
2018-Apr-21 03:41 168 23.3
2018-Apr-21 03:26 168 23.3
2018-Apr-21 03:11 168 22.8
2018-Apr-21 02:56 168 22.8
2018-Apr-21 02:41 168 22.8
2018-Apr-21 02:26 168 22.8
2018-Apr-21 02:11 168 23.3
2018-Apr-21 01:56 168 23.3
2018-Apr-21 01:41 168 23.3
2018-Apr-21 01:26 168 23.3
2018-Apr-21 01:11 169 0 gusting 6 23.3
2018-Apr-21 00:56 100 0 gusting 6 23.3
2018-Apr-21 00:41 142 0 gusting 5 23.3
2018-Apr-21 00:26 159 23.3
2018-Apr-21 00:11 136 23.3
2018-Apr-20 23:56 081 23.3
2018-Apr-20 23:41 147 1 gusting 6 23.3
2018-Apr-20 23:26 137 0 gusting 7 23.3
2018-Apr-20 23:11 163 23.3
2018-Apr-20 22:56 160 23.9
2018-Apr-20 22:41 130 0 gusting 5 23.9
2018-Apr-20 22:26 132 23.9
2018-Apr-20 22:11 145 1 gusting 8 23.9
2018-Apr-20 21:56 155 3 gusting 7 24.4
2018-Apr-20 21:41 128 1 gusting 8 25.0
2018-Apr-20 21:26 162 7 gusting 14 25.6
2018-Apr-20 21:11 107 3 gusting 9 25.6
2018-Apr-20 20:56 140 2 gusting 13 25.6
2018-Apr-20 20:41 095 6 gusting 14 26.1
2018-Apr-20 20:26 123 1 gusting 7 26.1
2018-Apr-20 20:11 146 0 gusting 9 25.0
2018-Apr-20 19:56 142 4 gusting 11 25.0
2018-Apr-20 19:41 167 0 gusting 12 26.1
2018-Apr-20 19:26 128 4 gusting 10 26.1
2018-Apr-20 19:11 157 4 gusting 16 25.6
2018-Apr-20 18:56 117 6 gusting 15 25.6
2018-Apr-20 18:41 182 7 gusting 14 25.0
2018-Apr-20 18:26 145 6 gusting 17 25.0
2018-Apr-20 18:11 117 4 gusting 14 26.1
2018-Apr-20 17:56 062 5 gusting 14 26.7
2018-Apr-20 17:41 143 2 gusting 11 25.6
2018-Apr-20 17:26 128 6 gusting 13 25.6
2018-Apr-20 17:11 098 7 gusting 16 25.0
2018-Apr-20 16:56 117 5 gusting 18 25.0
2018-Apr-20 16:41 173 6 gusting 13 25.6
2018-Apr-20 16:26 132 6 gusting 13 25.6
2018-Apr-20 16:11 126 5 gusting 13 25.0
2018-Apr-20 15:56 136 2 gusting 10 25.6
2018-Apr-20 15:41 071 5 gusting 12 25.0
2018-Apr-20 15:25 178 1 gusting 13 24.4
2018-Apr-20 15:11 105 3 gusting 10 24.4
2018-Apr-20 14:56 148 1 gusting 9 24.4
2018-Apr-20 14:40 144 0 gusting 10 24.4
2018-Apr-20 14:25 102 24.4
2018-Apr-20 14:10 147 0 gusting 6 24.4
2018-Apr-20 13:55 134 0 gusting 10 23.9
2018-Apr-20 13:40 123 1 gusting 13 23.3
2018-Apr-20 13:25 157 3 gusting 11 23.9
2018-Apr-20 13:10 161 1 gusting 9 23.9
2018-Apr-20 12:55 120 6 gusting 13 24.4
2018-Apr-20 12:40 065 1 gusting 8 25.0
2018-Apr-20 12:25 071 24.4
2018-Apr-20 12:10 076 24.4
2018-Apr-20 11:55 082 23.9
2018-Apr-20 11:40 050 23.3
2018-Apr-20 11:25 128 23.3
2018-Apr-20 11:10 130 22.8
2018-Apr-20 10:55 134 22.8
2018-Apr-20 10:40 134 22.2
2018-Apr-20 10:25 134 21.7
2018-Apr-20 10:10 134 21.1
2018-Apr-20 09:55 134 21.1
2018-Apr-20 09:40 134 21.1
2018-Apr-20 09:25 134 21.1
2018-Apr-20 09:10 134 21.1
2018-Apr-20 08:55 134 21.7
2018-Apr-20 08:40 134 21.7
2018-Apr-20 08:25 134 21.7
2018-Apr-20 08:10 134 21.7
2018-Apr-20 07:55 134 21.7
2018-Apr-20 07:40 134 21.7
2018-Apr-20 07:25 134 21.7
2018-Apr-20 07:10 134 22.2
2018-Apr-20 06:55 135 0 gusting 3 22.2
2018-Apr-20 06:40 140 22.2
2018-Apr-20 06:25 136 22.2
2018-Apr-20 06:10 140 0 gusting 5 22.2
2018-Apr-20 05:54 145 22.2
2018-Apr-20 05:39 145 22.8
2018-Apr-20 05:24 147 22.8
2018-Apr-20 05:09 129 22.8
2018-Apr-20 04:54 130 1 gusting 7 22.8
2018-Apr-20 04:39 139 0 gusting 4 22.8
2018-Apr-20 04:24 129 22.8
2018-Apr-20 04:09 137 0 gusting 6 22.8
2018-Apr-20 03:54 146 0 gusting 6 22.8
2018-Apr-20 03:39 118 2 gusting 7 22.8
2018-Apr-20 03:24 099 0 gusting 7 23.3
2018-Apr-20 03:09 123 2 gusting 7 23.3
2018-Apr-20 02:54 129 23.3
2018-Apr-20 02:39 114 0 gusting 6 23.3
2018-Apr-20 02:24 143 23.3
2018-Apr-20 02:09 122 0 gusting 5 23.3
2018-Apr-20 01:54 136 0 gusting 6 23.3
2018-Apr-20 01:39 125 0 gusting 5 23.3
2018-Apr-20 01:24 118 2 gusting 7 23.3
2018-Apr-20 01:09 143 23.3
2018-Apr-20 00:54 122 0 gusting 6 23.3
2018-Apr-20 00:39 144 0 gusting 5 23.3
2018-Apr-20 00:24 126 0 gusting 8 23.3
2018-Apr-20 00:09 158 2 gusting 6 23.9
2018-Apr-19 23:54 147 0 gusting 7 23.9
2018-Apr-19 23:39 115 0 gusting 6 23.9
2018-Apr-19 23:24 144 0 gusting 6 23.9
2018-Apr-19 23:09 129 1 gusting 7 24.4
2018-Apr-19 22:54 129 0 gusting 6 24.4
2018-Apr-19 22:39 127 0 gusting 7 24.4
2018-Apr-19 22:24 100 5 gusting 12 25.0
2018-Apr-19 22:09 112 2 gusting 12 25.0
2018-Apr-19 21:54 114 0 gusting 9 25.6
2018-Apr-19 21:39 120 3 gusting 13 25.6
2018-Apr-19 21:24 172 2 gusting 9 26.1
2018-Apr-19 21:09 161 1 gusting 10 26.1
2018-Apr-19 20:54 149 4 gusting 13 26.7
2018-Apr-19 20:39 144 0 gusting 11 26.7
2018-Apr-19 20:24 118 1 gusting 10 26.7
2018-Apr-19 20:09 126 26.7
2018-Apr-19 19:54 109 1 gusting 11 27.2
2018-Apr-19 19:39 112 5 gusting 13 27.2
2018-Apr-19 19:24 125 6 gusting 17 26.7
2018-Apr-19 19:09 109 2 gusting 9 27.2
2018-Apr-19 18:54 174 6 gusting 14 26.7
2018-Apr-19 18:39 109 1 gusting 18 26.7
2018-Apr-19 18:24 091 5 gusting 14 27.2
2018-Apr-19 18:09 078 3 gusting 15 26.7
2018-Apr-19 17:54 119 5 gusting 13 26.7
2018-Apr-19 17:39 180 3 gusting 12 26.7
2018-Apr-19 17:24 144 2 gusting 10 26.7
2018-Apr-19 17:09 174 4 gusting 14 25.6
2018-Apr-19 16:54 171 1 gusting 14 26.7
2018-Apr-19 16:39 123 3 gusting 13 26.1
2018-Apr-19 16:24 077 2 gusting 9 26.1
2018-Apr-19 16:09 171 5 gusting 13 26.7
2018-Apr-19 15:54 131 5 gusting 12 27.2
2018-Apr-19 15:39 103 4 gusting 9 26.1
2018-Apr-19 15:24 139 2 gusting 10 25.0
2018-Apr-19 15:09 158 3 gusting 10 23.9
2018-Apr-19 14:54 111 4 gusting 13 25.6
2018-Apr-19 14:39 123 1 gusting 9 26.1
2018-Apr-19 14:24 112 5 gusting 15 26.7
2018-Apr-19 14:09 117 5 gusting 13 26.7
2018-Apr-19 13:53 123 6 gusting 14 26.7
2018-Apr-19 13:38 129 4 gusting 11 25.6
2018-Apr-19 13:23 139 4 gusting 16 25.6
2018-Apr-19 13:08 136 5 gusting 18 25.6
2018-Apr-19 12:53 121 5 gusting 10 25.6
2018-Apr-19 12:38 135 4 gusting 9 25.0
2018-Apr-19 12:23 130 4 gusting 10 24.4
2018-Apr-19 12:08 133 1 gusting 10 24.4
2018-Apr-19 11:53 115 3 gusting 8 24.4
2018-Apr-19 11:38 111 5 gusting 12 24.4
2018-Apr-19 11:23 128 3 gusting 9 23.9
2018-Apr-19 11:08 139 2 gusting 10 23.3